Location: N�rnberg
(49.4471°N, 11.0632°E)
Time: 20:56:32
(UTC+01:00)

ARIANE 6 FM1 Upper Stage - Pass Details

Date: 12 February 2026
Orbit: 523 x 607 km, 62.0° (Epoch: 11 March)

Event Time Altitude Azimuth Distance (km) Brightness Sun altitude
Rises 20:16:35 0° 315° (NW) 2,662 7.0 -27.4°
Reaches altitude 10° 20:18:46 10° 316° (NW) 1,769 5.9 -27.8°
Enters shadow 20:20:50 30° 318° (NW) 973 4.3 -28.1°
